SCP
0 0 0 0 0 0 0 0 0 0 0 0 0 0 0 0 0 0 0 0 0 0 0 0 0 0 0 0 0 0 0 0 0 0 0 0 1 1 0 1 1 1 0
0 0 0 0 0 0 0 0 0 0 0 0 0 0 0 0 0 0 0 0 0 0 0 0 0 0 0 0 0 0 0 0 0 0 0 0 0 0 0 0 1 0 0
0 0 0 0 0 0 0 0 0 0 0 0 0 0 0 0 0 0 0 0 0 0 0 0 0 0 0 0 0 0 0 0 0 0 0 0 0 0 0 0 1 1 1
0 0 0 0 0 0 0 0 0 0 0 0 0 0 0 0 0 0 0 0 0 0 0 0 0 0 0 0 0 0 0 0 0 0 0 0 0 0 0 0 0 1 1
0 0 0 0 0 0 0 0 0 0 0 0 0 0 0 0 0 0 0 0 0 0 0 0 0 0 0 0 0 0 0 0 0 0 0 0 0 0 0 0 0 0 1
0 0 0 0 0 0 0 0 0 0 0 0 0 0 0 0 0 0 0 0 0 0 0 0 0 0 0 0 0 0 0 0 0 0 0 0 0 0 0 0 0 0 1
0 0 0 0 0 0 0 0 0 0 0 0 0 0 0 0 0 0 0 0 0 0 0 0 0 0 0 0 0 0 0 0 0 0 0 0 0 0 0 0 0 1 1
0 0 0 0 0 0 0 0 0 0 0 0 0 0 0 0 0 0 0 0 0 0 0 0 0 0 0 0 0 0 0 0 0 0 0 0 0 0 0 0 0 0 1
0 0 0 0 0 0 0 0 0 0 0 0 0 0 0 0 0 0 0 0 0 0 0 0 0 0 0 0 0 0 0 -0 0 0 0 0 0 0 0 1 0 1 0
0 0 0 0 0 0 0 0 0 0 0 0 0 0 0 0 0 0 0 0 0 0 0 0 0 0 -0 -0 -0 0 0 0 0 0 0 0 0 0 0 0 0 0 1
0 0 0 0 0 0 0 0 0 0 0 0 0 0 0 0 0 0 0 0 0 0 0 0 0 -0 -0 -0 0 -0 -0 0 0 -0 0 0 0 0 0 0 0 0 1
0 0 0 -0 -0 0 0 0 0 0 0 0 0 0 0 0 0 0 0 0 0 0 0 0 -0 -0 -0 -0 0 -0 -0 -0 -0 -0 -0 -0 0 0 0 0 0 1 1
0 -0 -0 -0 0 0 0 0 0 0 0 0 0 0 0 0 0 0 0 -0 -0 0 -0 -0 -0 -0 -0 -0 -0 -0 -0 0 -0 0 -0 -0 0 0 0 0 0 0 0
0 0 -0 0 0 0 0 0 0 0 0 0 0 0 0 0 0 -0 -0 -0 0 0 -0 0 -0 -0 -0 -0 0 0 0 -0 -0 0 0 0 0 0 0 0 0 0 0
0 0 -0 0 0 0 0 0 0 0 0 0 0 0 0 0 0 -0 -0 -0 0 -0 0 0 0 0 0 0 0 0 0 -0 0 -0 0 0 0 0 0 0 0 0 0
0 0 0 0 0 0 0 0 0 0 0 0 0 0 0 -0 -0 -0 -0 -0 -0 -0 0 -0 0 0 0 0 0 0 0 -0 -0 -0 0 0 0 0 0 0 0 0 0
0 -0 -0 0 0 0 0 0 0 0 0 0 -0 -0 -0 -0 -0 -0 0 0 0 -0 -0 -0 0 -0 -0 0 0 -0 0 0 0 0 0 0 0 0 0 0 0 0 0
0 -0 -0 0 0 0 0 0 0 0 0 -0 -0 -0 0 0 -0 -0 0 0 0 0 0 0 0 0 0 0 0 0 0 0 0 0 0 -0 0 0 0 0 0 0 0
-0 -0 -0 -0 -0 0 0 0 0 0 0 -0 -0 -0 -0 0 -0 0 -0 0 0 0 0 0 0 0 0 0 0 0 0 0 0 0 0 0 0 0 0 0 0 0 0
0 -0 -0 0 0 -0 0 0 0 0 0 -0 -0 -0 -0 -0 0 0 0 0 -0 -0 0 0 0 0 0 0 0 0 0 0 0 0 0 0 0 0 0 0 0 0 0
-0 0 -0 0 0 -0 -0 0 0 0 -0 -0 -0 -0 -0 -0 -0 -0 0 0 0 -0 0 0 0 0 0 0 0 0 0 0 -0 -0 0 0 0 0 -0 0 0 0 0
-0 0 0 0 0 0 0 0 0 -0 -0 -0 -0 -0 -0 -0 -0 -0 -0 0 0 -0 -0 0 0 0 -0 0 0 0 0 0 0 0 -0 0 0 0 0 0 0 0 0
-0 0 0 0 0 0 0 0 0 -0 -0 -0 -0 -0 -0 -0 -0 -0 -0 0 0 0 -0 0 0 0 0 0 -0 -0 -0 -0 0 0 0 -0 -0 -0 -0 0 0 0 0
0 0 0 0 0 0 0 0 0 -0 -0 -0 -0 -0 0 0 0 0 0 -0 -0 -0 0 0 0 -0 -0 -0 -0 -0 -0 -0 -0 -0 -0 0 -0 0 0 0 0 0 0
0 0 0 0 -0 0 0 0 0 0 -0 -0 -0 0 0 0 0 0 0 0 0 0 0 -0 -0 -0 -0 -0 -0 -0 -0 -0 -0 0 0 0 0 0 0 0 0 0 0
-0 -0 0 0 0 0 -0 0 0 -0 -0 -0 -0 0 0 0 0 0 0 0 0 0 0 0 0 -0 -0 -0 -0 -0 -0 -0 -0 -0 -0 0 0 0 -0 0 0 0 0
Wind_Speed_500mb
4 12 21 27 34 41 46 48 51 57 61 63 61 57 55 54 56 59 62 61 60 64 65 66 69 73 79 79 79 75 82 79 89 77 74 71 69 54 63 61 51 44 42
11 16 22 28 34 39 41 46 49 53 53 50 50 52 54 53 56 58 56 57 60 64 65 65 69 66 70 72 74 78 91 90 82 77 67 67 64 59 69 72 61 58 51
16 21 27 32 37 43 47 49 50 47 47 47 48 50 50 50 50 50 53 62 65 68 68 69 70 69 72 75 72 79 78 76 81 88 90 77 77 73 63 62 61 64 53
21 24 28 32 36 40 43 42 42 43 46 45 44 44 44 47 49 53 58 67 73 75 79 80 78 71 72 69 78 78 74 81 78 87 76 63 60 59 63 65 57 56 47
27 29 33 36 39 41 42 44 45 44 43 43 42 44 47 55 54 56 61 70 76 78 79 80 84 84 83 83 77 84 89 80 72 69 72 67 64 62 58 56 60 51 49
32 33 36 40 40 42 43 46 44 42 41 42 43 49 56 55 59 69 65 66 75 81 83 84 83 82 83 83 80 78 94 95 100 85 65 63 65 57 49 57 63 57 51
35 36 38 39 41 42 42 41 41 39 41 43 50 50 56 60 65 57 67 83 78 81 82 86 88 82 77 78 80 84 82 85 89 99 97 83 72 65 67 66 61 59 55
36 37 37 37 40 40 41 41 40 40 44 49 51 55 62 69 64 80 78 73 71 73 81 76 80 82 85 78 79 85 85 89 76 85 94 90 86 85 81 73 67 57 46
34 37 37 37 41 42 42 39 38 43 47 48 52 61 66 63 63 76 59 61 65 71 67 66 71 75 73 68 74 80 77 82 69 72 75 78 80 75 71 73 70 58 50
35 38 40 41 43 44 45 40 39 43 49 49 56 65 57 59 67 49 50 54 64 64 67 68 69 69 64 68 74 69 76 83 64 58 68 81 76 71 64 69 76 62 53
43 45 44 44 44 46 44 39 40 46 48 56 62 59 57 57 50 46 55 64 65 70 68 72 62 54 58 63 57 66 76 73 70 70 67 64 71 69 70 71 77 69 48
47 47 45 46 44 39 39 42 43 46 50 54 65 58 60 49 47 49 57 64 53 56 60 61 52 40 47 42 55 44 48 63 74 76 71 67 66 60 61 64 80 80 61
45 45 45 42 36 30 35 39 40 40 48 58 50 51 52 44 46 55 60 55 46 38 39 37 39 28 16 18 30 20 13 11 34 41 50 55 46 48 61 63 65 66 63
45 42 38 35 34 28 29 34 39 41 42 43 46 49 47 48 51 61 52 42 25 23 17 13 8 6 20 23 28 28 34 41 39 35 41 33 16 19 51 67 68 64 64
43 38 35 36 35 35 33 35 34 30 37 42 42 49 45 54 57 47 33 24 21 11 1 10 19 13 10 11 20 17 32 36 37 36 47 41 40 46 68 81 74 75 68
43 42 37 37 38 36 35 37 26 28 31 30 34 35 41 47 47 27 9 15 16 20 17 21 13 16 20 29 23 20 23 18 23 35 43 42 42 28 41 53 52 47 54
48 41 39 33 37 37 38 40 44 37 24 19 15 25 31 44 37 14 9 16 11 21 24 16 23 38 38 27 27 27 19 16 13 13 14 18 21 22 29 40 47 57 59
59 45 37 34 35 36 37 36 35 37 39 29 29 33 32 41 27 7 3 7 7 13 11 22 30 35 31 28 24 28 19 25 24 22 19 22 29 35 38 43 42 48 53
65 58 40 32 31 33 38 39 37 37 37 35 28 26 27 33 17 9 4 7 11 10 19 30 24 25 27 26 31 27 25 32 40 31 31 32 28 31 32 38 36 40 48
50 67 42 35 32 34 42 43 44 38 35 31 37 39 35 39 24 13 6 15 12 11 25 28 21 25 26 26 28 25 29 33 35 39 41 30 27 28 34 35 36 32 42
39 55 58 45 38 36 38 44 45 45 42 38 33 27 31 42 49 18 9 22 14 10 16 24 23 26 32 34 33 29 24 31 36 43 36 28 36 23 24 25 28 30 37
39 44 55 58 51 45 41 37 42 45 45 41 33 26 27 34 50 32 25 28 3 16 20 23 24 28 30 48 43 37 45 38 39 38 42 41 30 24 24 26 28 30 31
38 39 41 52 56 58 52 48 42 41 43 40 39 35 33 33 34 34 44 35 5 15 22 30 40 31 31 36 36 36 46 48 40 33 32 31 32 27 25 23 18 20 21
37 39 40 43 51 55 57 60 55 47 43 41 37 34 38 36 35 29 33 52 59 33 30 37 33 35 30 38 34 34 32 31 30 34 31 32 30 28 26 25 22 20 13
37 38 39 41 44 46 50 55 58 57 56 51 44 40 34 33 35 30 30 28 32 29 35 41 38 40 18 19 17 17 19 19 23 27 32 30 24 21 25 16 12 12 12
37 38 37 38 41 52 44 46 50 55 57 59 57 48 44 37 28 27 31 29 26 17 15 20 24 35 20 7 5 8 10 14 19 26 30 28 22 19 23 21 15 12 10
Wind_Direction_500mb
228 266 280 284 288 290 289 288 289 288 287 288 289 287 285 284 284 282 279 280 282 283 280 280 278 273 270 268 268 268 263 262 265 271 268 272 277 279 274 275 271 263 272
296 293 293 291 294 293 290 290 290 289 288 288 286 284 284 284 280 280 282 282 279 280 280 280 278 276 271 271 271 271 266 262 265 270 264 263 269 273 274 271 265 257 262
304 306 306 301 296 295 293 292 290 289 287 285 286 284 284 281 279 280 281 280 281 280 280 280 279 278 276 270 267 269 270 269 265 265 265 266 269 272 268 272 267 261 258
304 300 295 292 291 291 289 289 287 285 283 283 284 283 282 282 284 283 282 281 278 278 277 276 274 275 276 277 272 266 272 272 270 263 263 261 260 266 272 268 267 260 257
302 300 298 296 292 291 290 289 288 288 287 290 288 284 282 280 283 286 284 285 283 282 277 275 274 273 270 268 271 271 266 268 267 267 260 257 258 267 257 263 262 259 256
301 302 300 298 295 292 289 290 291 290 285 282 282 280 278 283 278 281 296 290 291 289 285 282 279 277 276 269 272 276 265 264 263 264 266 253 251 254 258 265 262 257 257
309 307 303 299 295 291 288 287 286 281 280 280 278 283 285 286 288 291 290 291 288 286 287 284 283 277 274 272 269 272 275 261 259 256 260 259 258 258 263 260 254 244 247
309 306 302 296 291 289 287 287 287 283 280 283 284 290 293 296 288 286 296 295 295 291 290 287 284 283 277 274 270 270 269 259 264 253 251 255 257 261 258 259 252 248 242
306 302 300 297 293 290 289 285 283 281 284 286 289 295 299 298 296 296 300 302 294 293 291 290 287 282 281 276 271 274 266 270 271 250 248 251 257 257 253 253 246 239 230
307 305 302 298 294 292 297 288 282 280 284 289 296 302 297 302 301 307 303 298 299 298 301 301 289 280 285 283 278 273 274 270 264 260 257 250 247 250 247 241 235 235 221
309 308 308 302 296 295 301 296 290 287 283 286 301 304 305 310 314 307 301 298 305 309 303 297 295 281 279 283 293 271 266 267 266 262 258 252 247 255 250 236 217 225 224
316 314 312 310 302 297 295 292 288 288 289 291 305 311 317 319 314 304 303 310 311 311 307 301 298 297 294 293 288 279 267 266 262 260 252 251 249 246 236 227 217 220 223
325 321 315 313 307 297 295 296 294 292 292 301 309 312 309 313 306 308 322 323 325 330 327 325 321 327 330 21 13 356 318 271 246 239 238 237 231 234 234 222 216 211 212
331 325 326 326 319 313 304 295 298 302 310 307 307 308 311 315 308 322 328 330 346 340 326 33 30 344 20 45 51 53 50 60 71 88 139 130 107 67 189 177 174 181 186
338 335 331 330 329 321 316 317 319 323 315 304 305 309 309 310 327 331 330 341 1 9 276 300 359 33 79 69 57 82 79 63 49 49 74 97 81 60 92 140 148 144 143
345 342 340 336 333 339 341 339 342 330 320 299 301 312 328 328 331 345 28 331 357 334 337 349 10 34 54 52 63 74 66 52 69 80 91 83 81 68 85 95 110 127 149
352 345 346 350 349 354 353 350 341 342 339 320 312 327 342 338 346 33 11 342 336 353 3 11 7 46 53 42 49 67 88 110 105 123 127 130 134 127 129 134 146 152 157
6 360 358 4 5 6 4 1 360 1 4 23 17 359 355 348 338 239 358 338 271 353 10 10 46 57 45 33 63 51 69 68 75 88 85 124 142 148 154 147 146 148 164
6 7 7 18 18 23 22 23 32 34 29 28 17 360 359 11 6 133 114 74 272 360 358 51 64 59 49 52 50 50 42 66 73 69 78 90 111 134 136 141 138 162 167
353 10 14 17 24 29 28 31 34 39 42 40 37 21 12 27 41 109 47 135 210 2 30 58 53 68 51 53 54 56 38 69 74 69 65 67 95 104 135 144 161 159 164
5 6 22 24 23 25 27 29 32 36 40 41 34 27 31 37 54 58 58 164 197 30 34 43 67 57 54 56 61 63 70 66 64 65 61 58 74 100 119 139 141 143 153
10 5 15 28 28 24 24 27 29 29 33 37 38 36 29 46 63 81 91 146 98 42 33 50 50 60 50 63 61 59 61 67 64 56 57 53 51 73 92 132 146 153 165
14 13 13 18 30 31 32 30 30 26 27 32 37 34 39 37 49 53 57 60 93 78 64 37 65 66 48 45 49 66 60 48 50 50 49 53 51 61 97 109 117 153 166
17 17 18 14 18 26 31 34 33 30 27 24 30 33 35 32 36 43 55 63 47 63 57 48 45 44 46 58 60 68 62 61 62 49 40 43 46 50 80 85 95 111 127
19 19 18 19 14 18 20 26 27 31 30 28 28 24 30 25 25 27 34 44 42 43 69 66 49 33 32 61 58 62 57 46 44 45 41 38 45 39 46 82 111 122 91
19 19 19 19 17 22 16 17 17 21 23 24 26 27 23 24 17 7 14 20 35 40 45 55 70 30 29 41 17 339 348 14 26 36 42 30 32 33 28 41 70 80 28
Wind_Speed_850mb
4 12 21 27 34 41 46 48 51 57 61 63 61 57 55 54 56 59 62 61 60 64 65 66 69 73 79 79 79 75 82 79 89 77 74 71 69 54 63 61 51 44 42
11 16 22 28 34 39 41 46 49 53 53 50 50 52 54 53 56 58 56 57 60 64 65 65 69 66 70 72 74 78 91 90 82 77 67 67 64 59 69 72 61 58 51
16 21 27 32 37 43 47 49 50 47 47 47 48 50 50 50 50 50 53 62 65 68 68 69 70 69 72 75 72 79 78 76 81 88 90 77 77 73 63 62 61 64 53
21 24 28 32 36 40 43 42 42 43 46 45 44 44 44 47 49 53 58 67 73 75 79 80 78 71 72 69 78 78 74 81 78 87 76 63 60 59 63 65 57 56 47
27 29 33 36 39 41 42 44 45 44 43 43 42 44 47 55 54 56 61 70 76 78 79 80 84 84 83 83 77 84 89 80 72 69 72 67 64 62 58 56 60 51 49
32 33 36 40 40 42 43 46 44 42 41 42 43 49 56 55 59 69 65 66 75 81 83 84 83 82 83 83 80 78 94 95 100 85 65 63 65 57 49 57 63 57 51
35 36 38 39 41 42 42 41 41 39 41 43 50 50 56 60 65 57 67 83 78 81 82 86 88 82 77 78 80 84 82 85 89 99 97 83 72 65 67 66 61 59 55
36 37 37 37 40 40 41 41 40 40 44 49 51 55 62 69 64 80 78 73 71 73 81 76 80 82 85 78 79 85 85 89 76 85 94 90 86 85 81 73 67 57 46
34 37 37 37 41 42 42 39 38 43 47 48 52 61 66 63 63 76 59 61 65 71 67 66 71 75 73 68 74 80 77 82 69 72 75 78 80 75 71 73 70 58 50
35 38 40 41 43 44 45 40 39 43 49 49 56 65 57 59 67 49 50 54 64 64 67 68 69 69 64 68 74 69 76 83 64 58 68 81 76 71 64 69 76 62 53
43 45 44 44 44 46 44 39 40 46 48 56 62 59 57 57 50 46 55 64 65 70 68 72 62 54 58 63 57 66 76 73 70 70 67 64 71 69 70 71 77 69 48
47 47 45 46 44 39 39 42 43 46 50 54 65 58 60 49 47 49 57 64 53 56 60 61 52 40 47 42 55 44 48 63 74 76 71 67 66 60 61 64 80 80 61
45 45 45 42 36 30 35 39 40 40 48 58 50 51 52 44 46 55 60 55 46 38 39 37 39 28 16 18 30 20 13 11 34 41 50 55 46 48 61 63 65 66 63
45 42 38 35 34 28 29 34 39 41 42 43 46 49 47 48 51 61 52 42 25 23 17 13 8 6 20 23 28 28 34 41 39 35 41 33 16 19 51 67 68 64 64
43 38 35 36 35 35 33 35 34 30 37 42 42 49 45 54 57 47 33 24 21 11 1 10 19 13 10 11 20 17 32 36 37 36 47 41 40 46 68 81 74 75 68
43 42 37 37 38 36 35 37 26 28 31 30 34 35 41 47 47 27 9 15 16 20 17 21 13 16 20 29 23 20 23 18 23 35 43 42 42 28 41 53 52 47 54
48 41 39 33 37 37 38 40 44 37 24 19 15 25 31 44 37 14 9 16 11 21 24 16 23 38 38 27 27 27 19 16 13 13 14 18 21 22 29 40 47 57 59
59 45 37 34 35 36 37 36 35 37 39 29 29 33 32 41 27 7 3 7 7 13 11 22 30 35 31 28 24 28 19 25 24 22 19 22 29 35 38 43 42 48 53
65 58 40 32 31 33 38 39 37 37 37 35 28 26 27 33 17 9 4 7 11 10 19 30 24 25 27 26 31 27 25 32 40 31 31 32 28 31 32 38 36 40 48
50 67 42 35 32 34 42 43 44 38 35 31 37 39 35 39 24 13 6 15 12 11 25 28 21 25 26 26 28 25 29 33 35 39 41 30 27 28 34 35 36 32 42
39 55 58 45 38 36 38 44 45 45 42 38 33 27 31 42 49 18 9 22 14 10 16 24 23 26 32 34 33 29 24 31 36 43 36 28 36 23 24 25 28 30 37
39 44 55 58 51 45 41 37 42 45 45 41 33 26 27 34 50 32 25 28 3 16 20 23 24 28 30 48 43 37 45 38 39 38 42 41 30 24 24 26 28 30 31
38 39 41 52 56 58 52 48 42 41 43 40 39 35 33 33 34 34 44 35 5 15 22 30 40 31 31 36 36 36 46 48 40 33 32 31 32 27 25 23 18 20 21
37 39 40 43 51 55 57 60 55 47 43 41 37 34 38 36 35 29 33 52 59 33 30 37 33 35 30 38 34 34 32 31 30 34 31 32 30 28 26 25 22 20 13
37 38 39 41 44 46 50 55 58 57 56 51 44 40 34 33 35 30 30 28 32 29 35 41 38 40 18 19 17 17 19 19 23 27 32 30 24 21 25 16 12 12 12
37 38 37 38 41 52 44 46 50 55 57 59 57 48 44 37 28 27 31 29 26 17 15 20 24 35 20 7 5 8 10 14 19 26 30 28 22 19 23 21 15 12 10
Wind_Direction_850mb
228 266 280 284 288 290 289 288 289 288 287 288 289 287 285 284 284 282 279 280 282 283 280 280 278 273 270 268 268 268 263 262 265 271 268 272 277 279 274 275 271 263 272
296 293 293 291 294 293 290 290 290 289 288 288 286 284 284 284 280 280 282 282 279 280 280 280 278 276 271 271 271 271 266 262 265 270 264 263 269 273 274 271 265 257 262
304 306 306 301 296 295 293 292 290 289 287 285 286 284 284 281 279 280 281 280 281 280 280 280 279 278 276 270 267 269 270 269 265 265 265 266 269 272 268 272 267 261 258
304 300 295 292 291 291 289 289 287 285 283 283 284 283 282 282 284 283 282 281 278 278 277 276 274 275 276 277 272 266 272 272 270 263 263 261 260 266 272 268 267 260 257
302 300 298 296 292 291 290 289 288 288 287 290 288 284 282 280 283 286 284 285 283 282 277 275 274 273 270 268 271 271 266 268 267 267 260 257 258 267 257 263 262 259 256
301 302 300 298 295 292 289 290 291 290 285 282 282 280 278 283 278 281 296 290 291 289 285 282 279 277 276 269 272 276 265 264 263 264 266 253 251 254 258 265 262 257 257
309 307 303 299 295 291 288 287 286 281 280 280 278 283 285 286 288 291 290 291 288 286 287 284 283 277 274 272 269 272 275 261 259 256 260 259 258 258 263 260 254 244 247
309 306 302 296 291 289 287 287 287 283 280 283 284 290 293 296 288 286 296 295 295 291 290 287 284 283 277 274 270 270 269 259 264 253 251 255 257 261 258 259 252 248 242
306 302 300 297 293 290 289 285 283 281 284 286 289 295 299 298 296 296 300 302 294 293 291 290 287 282 281 276 271 274 266 270 271 250 248 251 257 257 253 253 246 239 230
307 305 302 298 294 292 297 288 282 280 284 289 296 302 297 302 301 307 303 298 299 298 301 301 289 280 285 283 278 273 274 270 264 260 257 250 247 250 247 241 235 235 221
309 308 308 302 296 295 301 296 290 287 283 286 301 304 305 310 314 307 301 298 305 309 303 297 295 281 279 283 293 271 266 267 266 262 258 252 247 255 250 236 217 225 224
316 314 312 310 302 297 295 292 288 288 289 291 305 311 317 319 314 304 303 310 311 311 307 301 298 297 294 293 288 279 267 266 262 260 252 251 249 246 236 227 217 220 223
325 321 315 313 307 297 295 296 294 292 292 301 309 312 309 313 306 308 322 323 325 330 327 325 321 327 330 21 13 356 318 271 246 239 238 237 231 234 234 222 216 211 212
331 325 326 326 319 313 304 295 298 302 310 307 307 308 311 315 308 322 328 330 346 340 326 33 30 344 20 45 51 53 50 60 71 88 139 130 107 67 189 177 174 181 186
338 335 331 330 329 321 316 317 319 323 315 304 305 309 309 310 327 331 330 341 1 9 276 300 359 33 79 69 57 82 79 63 49 49 74 97 81 60 92 140 148 144 143
345 342 340 336 333 339 341 339 342 330 320 299 301 312 328 328 331 345 28 331 357 334 337 349 10 34 54 52 63 74 66 52 69 80 91 83 81 68 85 95 110 127 149
352 345 346 350 349 354 353 350 341 342 339 320 312 327 342 338 346 33 11 342 336 353 3 11 7 46 53 42 49 67 88 110 105 123 127 130 134 127 129 134 146 152 157
6 360 358 4 5 6 4 1 360 1 4 23 17 359 355 348 338 239 358 338 271 353 10 10 46 57 45 33 63 51 69 68 75 88 85 124 142 148 154 147 146 148 164
6 7 7 18 18 23 22 23 32 34 29 28 17 360 359 11 6 133 114 74 272 360 358 51 64 59 49 52 50 50 42 66 73 69 78 90 111 134 136 141 138 162 167
353 10 14 17 24 29 28 31 34 39 42 40 37 21 12 27 41 109 47 135 210 2 30 58 53 68 51 53 54 56 38 69 74 69 65 67 95 104 135 144 161 159 164
5 6 22 24 23 25 27 29 32 36 40 41 34 27 31 37 54 58 58 164 197 30 34 43 67 57 54 56 61 63 70 66 64 65 61 58 74 100 119 139 141 143 153
10 5 15 28 28 24 24 27 29 29 33 37 38 36 29 46 63 81 91 146 98 42 33 50 50 60 50 63 61 59 61 67 64 56 57 53 51 73 92 132 146 153 165
14 13 13 18 30 31 32 30 30 26 27 32 37 34 39 37 49 53 57 60 93 78 64 37 65 66 48 45 49 66 60 48 50 50 49 53 51 61 97 109 117 153 166
17 17 18 14 18 26 31 34 33 30 27 24 30 33 35 32 36 43 55 63 47 63 57 48 45 44 46 58 60 68 62 61 62 49 40 43 46 50 80 85 95 111 127
19 19 18 19 14 18 20 26 27 31 30 28 28 24 30 25 25 27 34 44 42 43 69 66 49 33 32 61 58 62 57 46 44 45 41 38 45 39 46 82 111 122 91
19 19 19 19 17 22 16 17 17 21 23 24 26 27 23 24 17 7 14 20 35 40 45 55 70 30 29 41 17 339 348 14 26 36 42 30 32 33 28 41 70 80 28